K4BHH Weather Reports


time (UTC)temp
F
wind
direction
speed
knots
gust
knots
rain 1hr
in
rain 24hr
in
rain mn
in
humidity
%
barometer
mb
20260906065454 77 26 7.8 16.5 0.00 0.00 0.00 80 1013.9
20260906064453 77 23 7.8 16.5 0.00 0.00 0.00 81 1013.5
20260906063453 77 8 3.5 5.2 0.00 0.00 0.00 83 1012.9
20260906062421 77 50 0.9 7.8 0.00 0.00 0.00 83 1012.5
20260906061420 77 44 3.5 12.2 0.00 0.00 0.00 83 1012.5
20260906060348 77 50 5.2 12.2 0.00 0.00 0.00 83 1012.2
20260906055347 77 47 7.0 12.2 0.00 0.00 0.00 84 1012.5
20260906054346 77 32 5.2 12.2 0.00 0.00 0.00 84 1012.5
20260906053345 75 48 6.1 12.2 0.00 0.00 0.00 88 1012.5
20260906052242 74 78 1.7 3.5 0.00 0.00 0.00 92 1011.9
20260906051241 74 168 0.0 0.0 0.00 0.00 0.00 92 1011.5
20260906050240 74 138 0.0 0.0 0.00 0.00 0.00 91 1011.5
20260906045208 75 139 0.0 0.0 0.00 0.00 0.00 91 1011.5
20260906044207 75 139 0.0 0.0 0.00 0.00 0.00 90 1011.9
20260906043206 75 139 0.0 0.0 0.00 0.00 0.00 90 1011.9
20260906042205 75 138 0.0 0.0 0.00 0.00 0.00 91 1012.2
20260906041102 75 139 0.0 0.0 0.00 0.00 0.00 90 1012.2
20260906040101 75 139 0.0 0.0 0.00 0.00 0.00 90 1012.2
20260906035100 75 139 0.0 0.0 0.00 0.00 0.00 90 1012.2
20260906034059 75 139 0.0 0.0 0.00 0.00 0.00 90 1012.2
20260906033027 75 138 0.0 0.0 0.00 0.00 0.00 89 1012.2
20260906032026 75 138 0.0 0.0 0.00 0.00 0.00 89 1012.2
20260906031025 75 139 0.0 0.0 0.00 0.00 0.00 89 1011.9
20260906030024 75 139 0.0 0.0 0.00 0.00 0.00 88 1011.9
20260906025024 75 139 0.0 0.0 0.00 0.00 0.00 88 1011.9
20260906024023 75 139 0.0 0.9 0.00 0.00 0.00 87 1011.9
20260906023022 76 139 0.0 0.9 0.00 0.00 0.00 87 1011.5
20260906021950 76 139 0.0 0.9 0.00 0.00 0.00 86 1011.5
20260906020949 76 139 0.0 0.9 0.00 0.00 0.00 86 1011.5
20260906015948 77 69 0.0 2.6 0.00 0.00 0.00 84 1011.2
20260906014916 77 69 0.0 3.5 0.00 0.00 0.00 83 1011.2
20260906013915 78 49 1.7 3.5 0.00 0.00 0.00 83 1011.2
20260906012914 78 39 1.7 2.6 0.00 0.00 0.00 82 1010.8
20260906011913 78 213 0.9 1.7 0.00 0.00 0.00 81 1010.8
20260906010908 78 214 0.0 0.0 0.00 0.00 0.00 80 1010.8
20260906005906 79 214 0.0 0.0 0.00 0.00 0.00 78 1010.8
20260906004906 80 214 0.0 2.6 0.00 0.00 0.00 78 1010.5
20260906003905 81 209 0.9 2.6 0.00 0.00 0.00 75 1010.8
20260906002904 82 347 0.0 0.9 0.00 0.00 0.00 70 1010.5
20260906001903 82 126 0.0 0.9 0.00 0.00 0.00 69 1010.5
20260906000902 83 134 0.0 1.7 0.00 0.00 0.00 68 1010.5
20260905235901 84 130 0.9 2.6 0.00 0.00 0.00 66 1010.5
20260905234900 84 178 0.0 7.0 0.00 0.00 0.00 64 1010.8
20260905233859 85 102 2.6 8.7 0.00 0.00 0.00 63 1010.8
20260905232827 87 108 2.6 11.3 0.00 0.00 0.00 61 1011.2
20260905231826 88 153 1.7 11.3 0.00 0.00 0.00 55 1011.5
20260905230825 86 65 3.5 13.9 0.00 0.00 0.00 66 1011.2
20260905225824 88 29 7.0 13.9 0.00 0.00 0.00 58 1010.8
20260905224823 93 19 8.7 13.9 0.00 0.00 0.00 55 1010.5
20260905223822 95 17 0.9 2.6 0.00 0.00 0.00 52 1010.2
20260905222751 95 339 0.9 1.7 0.00 0.00 0.00 52 1010.2
20260905221750 93 8 0.0 1.7 0.00 0.00 0.00 55 1010.2
20260905220718 94 13 0.9 2.6 0.00 0.00 0.00 53 1010.2
20260905215717 95 47 0.9 5.2 0.00 0.00 0.00 48 1010.2
20260905214716 96 25 2.6 6.1 0.00 0.00 0.00 47 1010.2
20260905213715 97 27 2.6 6.1 0.00 0.00 0.00 46 1010.2
20260905212715 97 56 0.9 5.2 0.00 0.00 0.00 48 1010.2
20260905211714 98 42 3.5 5.2 0.00 0.00 0.00 47 1010.2
20260905210642 98 26 1.7 3.5 0.00 0.00 0.00 45 1010.2
20260905205641 97 23 1.7 7.8 0.00 0.00 0.00 45 1010.2
20260905204640 97 36 2.6 7.8 0.00 0.00 0.00 45 1010.5
20260905203639 97 37 4.3 7.0 0.00 0.00 0.00 46 1010.5
20260905202638 97 47 1.7 7.0 0.00 0.00 0.00 49 1010.5
20260905201637 98 26 3.5 5.2 0.00 0.00 0.00 48 1010.8
20260905200636 98 349 2.6 8.7 0.00 0.01 0.00 48 1010.8
20260905195635 97 40 4.3 8.7 0.00 0.01 0.00 47 1011.2
20260905194634 97 22 1.7 6.1 0.00 0.01 0.00 48 1011.2
20260905193602 97 47 1.7 7.0 0.00 0.01 0.00 49 1011.5
20260905192601 96 57 2.6 7.8 0.00 0.01 0.00 49 1011.5
20260905191600 97 50 5.2 7.8 0.00 0.01 0.00 48 1011.5
20260905190559 96 5 1.7 7.0 0.00 0.01 0.00 51 1011.9
20260905185559 96 42 3.5 8.7 0.00 0.01 0.00 48 1012.2
20260905184558 96 20 3.5 8.7 0.00 0.01 0.00 49 1012.2
20260905183525 95 40 3.5 7.8 0.00 0.01 0.00 48 1012.2
20260905182525 95 62 3.5 6.1 0.00 0.01 0.00 51 1012.2
20260905181524 95 54 3.5 6.1 0.00 0.01 0.00 50 1012.5
20260905180523 95 353 2.6 6.1 0.00 0.01 0.00 53 1012.5
20260905175522 95 98 1.7 6.1 0.00 0.01 0.00 57 1012.5
20260905174450 95 27 3.5 6.1 0.00 0.01 0.00 56 1012.5
20260905173449 95 251 1.7 5.2 0.00 0.01 0.00 57 1012.9
20260905172449 94 6 1.7 8.7 0.00 0.01 0.00 56 1012.9
20260905171447 94 6 5.2 8.7 0.00 0.01 0.00 59 1012.9
20260905170415 94 261 0.9 4.3 0.00 0.01 0.00 59 1012.9
20260905165414 93 20 1.7 5.2 0.00 0.01 0.00 61 1013.2
20260905164413 92 352 0.9 5.2 0.00 0.01 0.00 61 1013.2
20260905163412 92 288 1.7 5.2 0.00 0.01 0.00 62 1013.5
20260905162412 91 258 1.7 4.3 0.00 0.01 0.00 67 1013.9
20260905161340 91 291 0.9 4.3 0.00 0.01 0.00 66 1013.9
20260905160339 90 290 0.9 4.3 0.00 0.01 0.00 64 1013.9
20260905155338 90 334 0.9 3.5 0.00 0.01 0.00 65 1013.9
20260905154337 89 59 0.9 3.5 0.00 0.01 0.00 68 1013.9
20260905153305 89 270 1.7 3.5 0.00 0.01 0.00 70 1013.9
20260905152306 88 268 1.7 4.3 0.00 0.01 0.00 71 1014.2
20260905151303 88 225 1.7 4.3 0.00 0.01 0.00 72 1013.9
20260905150302 87 182 1.7 3.5 0.00 0.01 0.00 73 1013.9
20260905145301 86 189 1.7 3.5 0.00 0.01 0.00 74 1014.2
20260905144300 85 186 0.9 2.6 0.00 0.01 0.00 75 1014.2
20260905143300 85 184 0.0 2.6 0.00 0.01 0.00 77 1014.2
20260905142156 84 273 0.9 2.6 0.00 0.01 0.00 79 1014.6
20260905141155 83 191 0.9 3.5 0.00 0.01 0.00 79 1014.6
20260905140154 82 193 1.7 3.5 0.00 0.01 0.00 82 1014.6
20260905135122 82 192 1.7 2.6 0.00 0.01 0.00 83 1014.6
20260905134122 81 189 1.7 2.6 0.00 0.01 0.00 84 1014.6
20260905133121 81 200 0.9 0.9 0.00 0.01 0.00 85 1014.6
20260905132120 79 215 0.9 0.9 0.00 0.01 0.00 86 1014.6
20260905131119 77 254 0.9 3.5 0.00 0.01 0.00 91 1014.9
20260905130047 76 198 0.9 4.3 0.00 0.01 0.00 93 1014.9
20260905125046 75 190 2.6 4.3 0.00 0.01 0.00 94 1014.6
20260905124045 75 325 0.9 1.7 0.00 0.01 0.00 94 1014.6
20260905123044 75 8 0.0 0.0 0.00 0.01 0.00 95 1014.6
20260905122043 74 8 0.0 0.0 0.00 0.01 0.00 95 1014.2
20260905121042 73 8 0.0 0.0 0.00 0.01 0.00 96 1014.2
20260905120010 71 8 0.0 0.0 0.00 0.01 0.00 96 1014.2
20260905115009 71 8 0.0 0.0 0.00 0.01 0.00 96 1014.2
20260905114008 71 8 0.0 0.0 0.00 0.01 0.00 95 1014.2
20260905113007 71 8 0.0 0.0 0.00 0.01 0.00 96 1013.9
20260905111935 71 8 0.0 0.0 0.00 0.01 0.00 95 1013.9
20260905110934 71 8 0.0 0.0 0.00 0.01 0.00 95 1013.5
20260905105902 71 8 0.0 0.0 0.00 0.01 0.00 95 1013.9
20260905104901 71 8 0.0 0.0 0.00 0.01 0.00 95 1013.5
20260905103900 71 8 0.0 0.0 0.00 0.01 0.00 95 1013.5
20260905102827 71 8 0.0 0.0 0.00 0.01 0.00 95 1013.5
20260905101826 71 8 0.0 0.0 0.00 0.01 0.00 95 1013.2
20260905100826 71 8 0.0 0.0 0.00 0.01 0.00 95 1013.2
20260905095825 71 8 0.0 0.0 0.00 0.01 0.00 95 1013.2
20260905094753 71 8 0.0 0.0 0.00 0.01 0.00 95 1013.2
20260905093752 71 8 0.0 0.0 0.00 0.01 0.00 95 1013.2
20260905092751 71 8 0.0 0.0 0.00 0.01 0.00 95 1013.2
20260905091718 72 8 0.0 0.0 0.00 0.01 0.00 95 1013.2
20260905090718 72 8 0.0 0.0 0.00 0.01 0.00 95 1013.2
20260905085717 72 8 0.0 0.0 0.00 0.01 0.00 95 1013.2
20260905084716 72 8 0.0 0.0 0.00 0.01 0.00 95 1013.2
20260905083715 72 8 0.0 0.0 0.00 0.01 0.00 95 1013.2
20260905082714 72 8 0.0 0.0 0.00 0.01 0.00 95 1013.2
20260905081713 72 8 0.0 0.0 0.00 0.01 0.00 95 1013.2
20260905080609 72 8 0.0 0.0 0.00 0.01 0.00 95 1012.9
20260905075608 72 8 0.0 0.0 0.00 0.01 0.00 95 1012.9
20260905074608 72 8 0.0 0.0 0.00 0.01 0.00 95 1012.9
20260905073536 72 8 0.0 0.0 0.00 0.01 0.00 95 1012.9
20260905072535 73 8 0.0 0.0 0.00 0.01 0.00 95 1012.9
20260905071534 73 11 0.0 0.0 0.00 0.01 0.00 95 1012.9
20260905070533 73 11 0.0 0.0 0.00 0.01 0.00 94 1012.9